[TLELIST] Archives

 

Current TLEs

November 8th 2007 PDT

HST 1 20580U 90037B 07309.50407017 +.00000399 +00000-0 +18115-4 0 00023 2 20580 028.4682 348.5706 0003838 156.8197 203.2569 15.00299054761207 ISS (ZARYA) 1 25544U 98067A 07311.41791212 .00026249 00000-0 16940-3 0 3090 2 25544 051.6369 085.3634 0002242 152.6061 245.2706 15.75932684513377 CXO 1 25867U 99040B 07310.45833333 .00000437 00000-0 10000-3 0 1319 2 25867 062.6443 086.0866 6440096 281.8144 359.3835 00.37804954 2789 ____________________________________________________________________ These 2-Line ...Continue Reading

Current TLEs

November 7th 2007 PDT

HST 1 20580U 90037B 07308.57275435 +.00000428 +00000-0 +20369-4 0 00067 2 20580 028.4680 354.6433 0003860 147.8428 212.2399 15.00298819761065 ISS (ZARYA) 1 25544U 98067A 07310.41255948 .00001329 00000-0 12543-4 0 3043 2 25544 051.6405 090.5487 0003148 158.9514 291.3938 15.75855918513216 CXO 1 25867U 99040B 07310.45833333 .00000437 00000-0 10000-3 0 1319 2 25867 062.6443 086.0866 6440096 281.8144 359.3835 00.37804954 2789 ____________________________________________________________________ These 2-Line ...Continue Reading

Current TLEs

November 6th 2007 PDT

HST 1 20580U 90037B 07309.23797947 .00000412 00000-0 19087-4 0 9975 2 20580 028.4681 350.3063 0003862 155.0023 205.0744 15.00299050761165 ISS (ZARYA) 1 25544U 98067A 07309.46263649 -.00000566 00000-0 53445-6 0 2997 2 25544 051.6405 095.4363 0002544 158.0286 299.6781 15.75844028513069 CXO 1 25867U 99040B 07307.83333333 .00000408 00000-0 10000-3 0 1309 2 25867 062.6323 086.1443 6436535 281.8643 001.9701 00.37804524 2779 ____________________________________________________________________ These 2-Line ...Continue Reading

Current TLEs

November 5th 2007 PDT

HST 1 20580U 90037B 07306.44403183 .00000414 00000-0 19267-4 0 9951 2 20580 028.4680 008.5257 0003783 128.9461 231.1472 15.00297666760740 ISS (ZARYA) 1 25544U 98067A 07307.05401741 .00012457 00000-0 82972-4 0 2847 2 25544 051.6390 107.8398 0002925 158.2837 305.9778 15.75849471512686 CXO 1 25867U 99040B 07307.83333333 .00000408 00000-0 10000-3 0 1309 2 25867 062.6323 086.1443 6436535 281.8643 001.9701 00.37804524 2779 ____________________________________________________________________ These 2-Line ...Continue Reading

Current TLEs

November 4th 2007 PDT

HST 1 20580U 90037B 07306.44403183 .00000414 00000-0 19267-4 0 9951 2 20580 028.4680 008.5257 0003783 128.9461 231.1472 15.00297666760740 ISS (ZARYA) 1 25544U 98067A 07307.05401741 .00012457 00000-0 82972-4 0 2847 2 25544 051.6390 107.8398 0002925 158.2837 305.9778 15.75849471512686 CXO 1 25867U 99040B 07307.83333333 .00000408 00000-0 10000-3 0 1309 2 25867 062.6323 086.1443 6436535 281.8643 001.9701 00.37804524 2779 ____________________________________________________________________ These 2-Line ...Continue Reading

Current TLEs

November 3rd 2007 PDT

HST 1 20580U 90037B 07304.58139731 .00000400 00000-0 18227-4 0 9948 2 20580 028.4679 020.6713 0003663 112.4303 247.6677 15.00296666760467 ISS (ZARYA) 1 25544U 98067A 07306.48489980 .00023602 00000-0 15333-3 0 2787 2 25544 051.6389 110.7723 0003515 157.0737 316.3948 15.75846604512591 CXO 1 25867U 99040B 07305.16666667 .00000355 00000-0 10000-3 0 1291 2 25867 062.6264 086.2143 6430985 281.9181 358.8923 00.37800517 2769 ____________________________________________________________________ These 2-Line ...Continue Reading

Current TLEs

November 2nd 2007 PDT

HST 1 20580U 90037B 07304.58139731 .00000400 00000-0 18227-4 0 9948 2 20580 028.4679 020.6713 0003663 112.4303 247.6677 15.00296666760467 ISS (ZARYA) 1 25544U 98067A 07305.53034863 -.00008908 00000-0 -52537-4 0 2724 2 25544 051.6365 115.6852 0002809 151.6466 303.0222 15.75794435512442 CXO 1 25867U 99040B 07305.16666667 .00000355 00000-0 10000-3 0 1291 2 25867 062.6264 086.2143 6430985 281.9181 358.8923 00.37800517 2769 ____________________________________________________________________ These 2-Line ...Continue Reading

Current TLEs

November 1st 2007 PDT

HST 1 20580U 90037B 07303.45051137 .00000361 00000-0 15179-4 0 9934 2 20580 028.4680 028.0467 0003510 102.6822 257.4158 15.00295870760295 ISS (ZARYA) 1 25544U 98067A 07304.51647532 .00018332 00000-0 11964-3 0 2654 2 25544 051.6396 120.9099 0002712 151.0656 308.1042 15.75935177512284 CXO 1 25867U 99040B 07305.16666667 .00000355 00000-0 10000-3 0 1291 2 25867 062.6264 086.2143 6430985 281.9181 358.8923 00.37800517 2769 ____________________________________________________________________ These 2-Line ...Continue Reading

Current TLEs

October 31st 2007 PDT

HST 1 20580U 90037B 07301.58787426 .00000346 00000-0 13976-4 0 9928 2 20580 028.4678 040.1908 0003457 083.2577 276.8406 15.00295003760017 ISS (ZARYA) 1 25544U 98067A 07303.50100388 .00005098 00000-0 36354-4 0 2583 2 25544 051.6392 126.1343 0002646 147.9575 306.2531 15.75893961512129 CXO 1 25867U 99040B 07302.54166667 .00000356 00000-0 10000-3 0 1285 2 25867 062.6172 086.2668 6426076 282.0008 001.4647 00.37797151 2757 ____________________________________________________________________ These 2-Line ...Continue Reading

Current TLEs

October 29th 2007 PDT

HST 1 20580U 90037B 07300.52350958 .00000336 00000-0 13230-4 0 9918 2 20580 028.4678 047.1331 0003337 070.2671 289.8274 15.00294466759851 ISS (ZARYA) 1 25544U 98067A 07300.90939573 .00014099 00000-0 92667-4 0 2412 2 25544 051.6371 139.4786 0002573 139.5015 001.9355 15.76020103511717 CXO 1 25867U 99040B 07299.83333333 .00000457 00000-0 10000-3 0 1279 2 25867 062.5946 086.3422 6425382 282.0575 352.7246 00.37804694 2749 ____________________________________________________________________ These 2-Line ...Continue Reading
  • This mailing list is a public mailing list - anyone may join or leave, at any time.
  • This mailing list is announce-only.

International Space Station (ISS) / Hubble Space Telescope (HST) / Chandra X-Ray Observatory Orbital Data via EMAIL

Privacy Policy:

Private list